User: anonymous   Login
Location: Unspecified
(29.5701°N, 0.0000°E)
Time: 04:37:40
(UTC+00:00)
Language:

Cosmos 400 Rocket - Orbit

View from above orbital plane
View from above orbital plane
View from above satellite
View from above satellite

Ground track
Ground track

The orbit is defined by the following mean orbital elements,

1 05051U          26088.15837005 +.00000000 +00000-0 +12271-3 0 00003
2 05051  65.8137 132.6974 0043892 147.1846 213.1956 13.76117400    09
Epoch (UTC): 29 March 2026 03:48:03
Eccentricity: 0.0043892
inclination: 65.8137°
perigee height: 945 km
apogee height: 1010 km
right ascension of ascending node: 132.6974°
argument of perigee: 147.1846°
revolutions per day: 13.76117400
mean anomaly at epoch: 213.1956°

The dashed part of the orbit path shows where the satellite is in the earth's shadow,  

DLR